Regional Weather Roundup
Issued by NWS Charleston, WV

Home | Current Version | Previous Version | Graphics & Text | Print | Product List | Glossary On
Versions: 1 2 3 4 5 6 7 8 9 10 11 12 13 14 15 16 17 18 19 20 21 22 23 24 25 26 27 28
000
ASUS41 KRLX 290310
RWRRLX
West Virginia Regional Weather Roundup
National Weather Service Charleston WV
1100 PM EDT THU APR 28 2016

Note: "fair" indicates few or no clouds below 12,000 feet with no
significant weather and/or obstructions to visibility.

WVZ003-290400-
Northern Panhandle of West Virginia

CITY           SKY/WX    TMP DP  RH WIND       PRES   REMARKS
WHEELING       CLOUDY    49  47  93 NE3       29.93F FOG
$$

WVZ009-290400-
Northwest West Virginia

CITY           SKY/WX    TMP DP  RH WIND       PRES   REMARKS
PARKERSBURG      N/A     63  58  83 NE6       29.93S
$$

WVZ006-290400-
Western West Virginia

CITY           SKY/WX    TMP DP  RH WIND       PRES   REMARKS
HUNTINGTON       N/A     64  59  83 N3        29.90R
$$

WVZ015-290400-
West Central West Virginia

CITY           SKY/WX    TMP DP  RH WIND       PRES   REMARKS
CHARLESTON       N/A     63  60  90 N3        29.89S
$$

WVZ022-031-290400-
North Central West Virginia

CITY           SKY/WX    TMP DP  RH WIND       PRES   REMARKS
CLARKSBURG     MOCLDY    58  57  97 NE3       29.91R
MORGANTOWN       N/A     56  50  80 CALM      29.92S
$$

WVZ025-035-042-045-290400-
Southern West Virginia

CITY           SKY/WX    TMP DP  RH WIND       PRES   REMARKS
BECKLEY          N/A     59  56  89 S5        29.97R
LOGAN          NOT AVBL
BLUEFIELD      CLOUDY    59  56  89 SW3       30.00R
LEWISBURG      MOCLDY    58  57  98 CALM      29.96F
$$

WVZ047-290400-
Northern Mountains of West Virginia

CITY           SKY/WX    TMP DP  RH WIND       PRES   REMARKS
ELKINS         CLOUDY    56  54  93 CALM      29.94R
$$

WVZ052-290400-
Eastern Panhandle of West Virginia

CITY           SKY/WX    TMP DP  RH WIND       PRES   REMARKS
MARTINSBURG    CLOUDY    46  45  96 N3        30.01S FOG
PETERSBURG     CLOUDY    51  50  95 CALM      29.99S FOG
$$




USA.gov is the U.S. government's official web portal to all federal, state and local government web resources and services.